Location: Alta
(39.2070°N, 120.8111°W)
Time: 07:00:54
(UTC+00:00)

CZ-4B DEB - Pass Details

Date: 08 December 2023
Orbit: 838 x 858 km, 99.0° (Epoch: 02 March)

Event Time Altitude Azimuth Distance (km) Brightness Sun altitude
Rises 02:50:56 0° 159° (SSE) 3,412 7.2 -24.6°
Reaches altitude 10° 02:53:17 10° 157° (SSE) 2,482 6.5 -25.1°
Enters shadow 02:54:13 15° 156° (SSE) 2,122 6.1 -25.3°
Exits shadow 02:58:39 73° 87° (E) 898 4.0 -26.1°
Maximum altitude 02:58:47 74° 74° (ENE) 896 4.0 -26.1°
Drops below altitude 10° 03:04:20 10° 350° (N) 2,501 6.7 -27.2°
Sets 03:06:43 0° 349° (N) 3,441 7.4 -27.7°
